Location: Namasale
(1.5000°N, 32.6167°E)
Time: 18:29:21
(UTC+00:00)

Vanguard 1 Rocket - Pass Details

Date: 26 April 2021
Orbit: 652 x 4224 km, 34.3° (Epoch: 09 May)

Event Time Altitude Azimuth Distance (km) Brightness Sun altitude
Rises 17:44:27 0° 298° (WNW) 3,447 11.6 -28.0°
Reaches altitude 10° 17:46:29 10° 295° (WNW) 2,718 10.8 -28.4°
Maximum altitude 17:52:55 67° 213° (SSW) 1,513 8.4 -30.0°
Enters shadow 17:55:48 48° 153° (SSE) 2,055 8.8 -30.7°
Drops below altitude 10° 18:05:30 10° 133° (SE) 5,080 - -33.0°
Sets 18:10:49 0° 131° (SE) 6,687 - -34.3°
